CST,Max TemperatureF,Mean TemperatureF,Min TemperatureF,Max Dew PointF,MeanDew PointF,Min DewpointF,Max Humidity, Mean Humidity, Min Humidity, Max Sea Level PressureIn, Mean Sea Level PressureIn, Min Sea Level PressureIn, Max VisibilityMiles, Mean VisibilityMiles, Min VisibilityMiles, Max Wind SpeedMPH, Mean Wind SpeedMPH, Max Gust SpeedMPH,PrecipitationIn, CloudCover, Events, WindDirDegrees
2012-12-1,48,40,32,48,40,32,100,96,81,30.06,29.86,29.72,5,2,0,18,8,18,0.00,7,Fog,182
2012-12-2,51,40,28,46,38,28,100,89,62,30.01,29.92,29.84,10,4,0,16,3,23,0.00,2,Fog-Rain,172
2012-12-3,60,48,35,57,45,28,100,85,61,29.97,29.75,29.58,10,6,0,20,11,30,0.00,5,Fog-Rain,226
2012-12-4,39,29,19,28,21,16,86,64,45,30.37,30.16,29.97,10,10,10,20,7,25,0.00,0,,296
2012-12-5,37,26,15,25,17,12,86,61,41,30.38,30.19,29.95,10,10,10,17,7,25,0.00,1,,142
2012-12-6,44,38,33,39,33,25,93,77,60,29.97,29.89,29.85,10,10,4,18,11,26,0.13,4,Rain,254
2012-12-7,33,28,24,27,25,21,93,83,70,30.00,29.97,29.95,10,10,10,13,7,17,0.00,5,,15
2012-12-8,37,32,26,28,27,27,100,85,65,30.03,29.99,29.95,10,8,1,15,5,18,0.00,4,,110
2012-12-9,33,30,28,32,30,27,100,94,81,29.96,29.83,29.75,10,4,0,16,10,22,0.08,8,Snow,134
2012-12-10,28,14,1,27,8,0,93,89,79,29.93,29.88,29.81,10,9,2,21,12,29,0.00,5,Snow,296
2012-12-11,26,18,10,25,19,9,100,89,79,30.00,29.88,29.79,10,10,2,12,6,,0.00,8,Snow,229
2012-12-12,42,30,17,28,23,18,100,73,57,29.99,29.95,29.90,10,10,10,18,9,25,0.00,1,,171
2012-12-13,41,31,21,27,21,19,93,70,49,30.10,30.00,29.94,10,9,7,13,8,,0.00,0,,209
2012-12-14,44,32,19,36,27,18,100,81,61,30.10,29.97,29.77,10,9,5,16,4,20,0.00,1,,136
2012-12-15,41,37,33,41,38,34,100,94,76,29.75,29.56,29.46,10,5,0,15,10,21,0.46,8,Fog-Rain,155
2012-12-16,33,26,19,34,24,18,100,98,93,29.78,29.69,29.55,7,3,0,17,10,21,0.01,8,Snow,302
2012-12-17,26,22,19,25,21,18,100,95,86,29.77,29.71,29.66,7,5,2,9,3,,0.00,8,Snow,2
2012-12-18,30,27,24,27,25,21,100,90,80,29.84,29.67,29.57,4,2,0,12,5,,0.06,8,Snow,101
2012-12-19,33,30,28,28,28,27,93,92,81,29.98,29.92,29.84,7,4,1,13,5,18,0.00,8,Snow,181
2012-12-20,30,21,12,28,18,9,93,85,74,29.97,29.80,29.71,7,2,1,31,17,40,0.02,8,Snow,336
2012-12-21,15,9,3,7,3,0,92,80,67,30.23,30.16,29.98,10,8,2,21,13,26,0.00,3,Snow,304
2012-12-22,26,14,3,14,9,0,86,77,59,30.18,30.02,29.93,10,10,10,9,3,,0.00,0,,171
2012-12-23,19,16,12,14,11,9,93,82,68,30.06,30.01,29.95,10,8,2,16,7,22,0.00,3,Snow,26
2012-12-24,19,10,1,12,8,-2,86,78,67,30.22,30.02,29.91,10,10,5,16,5,22,0.00,4,Snow,344
2012-12-25,12,6,0,3,-2,-6,85,77,67,30.42,30.35,30.23,10,10,10,12,7,17,0.00,0,,338
2012-12-26,15,9,3,9,2,-2,85,77,67,30.32,30.24,30.19,10,10,10,9,6,,0.00,1,,7
2012-12-27,21,12,3,16,10,0,92,82,68,30.20,30.14,30.08,10,7,1,13,3,,0.00,4,Snow,85
2012-12-28,23,21,19,18,16,16,93,86,80,30.07,29.99,29.93,10,6,1,8,5,,0.00,8,Snow,34
2012-12-29,19,11,1,16,8,-4,93,83,68,30.17,30.07,29.97,10,8,2,12,8,,0.00,5,Snow,279
2012-12-30,23,12,0,18,7,-6,93,83,74,30.19,30.06,29.90,10,7,0,13,4,,0.00,2,Fog,190
2012-12-31,17,8,-2,12,3,-8,92,74,62,30.21,30.10,29.96,10,10,2,17,12,24,0.00,0,Snow,319